Glencoe, MN

12:08 PM CDT on October 21, 2017 (GMT -0500)
Glencoe Municipal

Weather History for KGYL - October, 2013

Change the Weather History Date:

Tuesday, October 8, 2013

  Actual Average (KHCD) Record (KHCD)
Temperature  
Mean Temperature 64 °F -  
Max Temperature 79 °F 62 °F 86 °F (1980)
Min Temperature 48 °F 40 °F 17 °F (2000)
Degree Days  
Heating Degree Days 2    
Growing Degree Days 14 (Base 50)    
Moisture  
Dew Point 41 °F    
Average Humidity 48    
Maximum Humidity 75    
Minimum Humidity 22    
Precipitation  
Precipitation 0.00 in - - ()
Sea Level Pressure  
Sea Level Pressure 29.86 in    
Wind  
Wind Speed 7 mph (SSE)    
Max Wind Speed 20 mph    
Max Gust Speed 30 mph    
Visibility 10 miles    
Events      
Averages and records for this station are not official NWS values.
T = Trace of Precipitation, MM = Missing Value Source: NWS Daily Summary

Daily Weather History Graph

Daily Weather History Graph

Search for Another Location

Airport or City:

Trip Planner

Search our weather history database for the weather conditions in past years. The results will help you decide how hot, cold, wet, or windy it might be!

Date:

Astronomy

Oct. 08, 2013 Rise Set
Actual Time 7:23 AM CDT 6:43 PM CDT
Civil Twilight 6:53 AM CDT 7:12 PM CDT
Nautical Twilight 6:20 AM CDT 7:46 PM CDT
Astronomical Twilight 5:46 AM CDT 8:20 PM CDT
Moon 11:27 AM CDT (10/8) 9:11 PM CDT (10/8)
Length of Visible Light 12h 18m
Length of Day
11h 20m
Waxing Crescent, 16% of the Moon is Illuminated
Oct 8
Waxing Crescent
Oct 11
First Quarter
Oct 18
Full
Oct 26
Last Quarter
Nov 3
New

Hourly Weather History & Observations

Time (CDT) Temp. Dew Point Humidity Pressure Visibility Wind Dir Wind Speed Gust Speed Precip Events Conditions
12:12 AM 48.6 °F 39.7 °F 72% 29.95 in 10.0 mi Calm Calm - N/A   Clear
12:33 AM 50.0 °F 39.7 °F 68% 29.94 in 10.0 mi SE 4.6 mph - N/A   Clear
12:53 AM 50.2 °F 40.1 °F 68% 29.95 in 10.0 mi SE 5.8 mph - N/A   Clear
1:13 AM 50.4 °F 40.3 °F 68% 29.95 in 10.0 mi SE 4.6 mph - N/A   Clear
1:33 AM 50.0 °F 40.5 °F 70% 29.95 in 10.0 mi SE 3.5 mph - N/A   Clear
1:53 AM 49.8 °F 41.0 °F 72% 29.94 in 10.0 mi SSE 4.6 mph - N/A   Clear
2:12 AM 49.6 °F 41.0 °F 72% 29.94 in 10.0 mi SE 4.6 mph - N/A   Clear
2:33 AM 50.0 °F 41.7 °F 73% 29.93 in 10.0 mi SSE 5.8 mph - N/A   Clear
2:52 AM 50.2 °F 42.1 °F 74% 29.92 in 10.0 mi SSE 5.8 mph - N/A   Clear
3:13 AM 50.5 °F 42.4 °F 74% 29.92 in 10.0 mi SE 5.8 mph - N/A   Clear
3:33 AM 50.4 °F 42.8 °F 75% 29.92 in 10.0 mi SE 5.8 mph - N/A   Clear
3:53 AM 50.9 °F 42.8 °F 74% 29.92 in 10.0 mi SSE 5.8 mph - N/A   Clear
4:13 AM 50.9 °F 42.8 °F 74% 29.91 in 10.0 mi SSE 4.6 mph - N/A   Clear
4:32 AM 51.4 °F 42.8 °F 72% 29.91 in 10.0 mi SSE 5.8 mph - N/A   Clear
4:53 AM 51.3 °F 42.4 °F 72% 29.90 in 10.0 mi SE 5.8 mph - N/A   Clear
5:12 AM 51.4 °F 42.3 °F 71% 29.90 in 10.0 mi SSE 5.8 mph - N/A   Clear
5:33 AM 52.7 °F 41.9 °F 67% 29.90 in 10.0 mi SSE 5.8 mph - N/A   Clear
5:52 AM 52.0 °F 41.9 °F 69% 29.90 in 10.0 mi SSE 6.9 mph - N/A   Clear
6:13 AM 51.8 °F 41.4 °F 68% 29.89 in 10.0 mi SSE 6.9 mph - N/A   Clear
6:33 AM 52.3 °F 41.0 °F 65% 29.89 in 10.0 mi SSE 5.8 mph - N/A   Clear
6:53 AM 52.5 °F 41.0 °F 65% 29.89 in 10.0 mi SSE 8.1 mph - N/A   Clear
7:13 AM 52.2 °F 40.6 °F 65% 29.89 in 10.0 mi SSE 9.2 mph - N/A   Clear
7:33 AM 52.2 °F 40.5 °F 64% 29.89 in 10.0 mi SSE 6.9 mph - N/A   Clear
7:53 AM 52.7 °F 40.6 °F 64% 29.89 in 10.0 mi SSE 6.9 mph - N/A   Clear
8:12 AM 53.6 °F 40.6 °F 62% 29.89 in 10.0 mi SSE 8.1 mph - N/A   Clear
8:33 AM 55.2 °F 40.6 °F 58% 29.88 in 10.0 mi South 9.2 mph - N/A   Clear
8:53 AM 56.7 °F 40.6 °F 55% 29.88 in 10.0 mi South 6.9 mph 17.3 mph N/A   Clear
9:13 AM 58.1 °F 41.0 °F 53% 29.87 in 10.0 mi SSE 8.1 mph 16.1 mph N/A   Clear
9:32 AM 59.7 °F 41.4 °F 51% 29.87 in 10.0 mi South 10.4 mph 19.6 mph N/A   Clear
9:53 AM 61.9 °F 41.2 °F 47% 29.87 in 10.0 mi South 9.2 mph 17.3 mph N/A   Clear
10:13 AM 64.2 °F 41.2 °F 43% 29.86 in 10.0 mi South 9.2 mph 17.3 mph N/A   Clear
10:33 AM 65.1 °F 41.4 °F 42% 29.86 in 10.0 mi South 13.8 mph 20.7 mph N/A   Clear
10:53 AM 66.4 °F 41.4 °F 40% 29.85 in 10.0 mi South 12.7 mph 20.7 mph N/A   Clear
11:13 AM 67.1 °F 41.5 °F 39% 29.86 in 10.0 mi South 12.7 mph 19.6 mph N/A   Clear
11:32 AM 67.5 °F 41.7 °F 39% 29.85 in 10.0 mi South 9.2 mph 16.1 mph N/A   Clear
11:52 AM 70.7 °F 41.4 °F 35% 29.84 in 10.0 mi South 9.2 mph 20.7 mph N/A   Clear
12:13 PM 70.7 °F 41.0 °F 34% 29.83 in 10.0 mi South 11.5 mph 21.9 mph N/A   Clear
12:33 PM 71.6 °F 40.3 °F 32% 29.83 in 10.0 mi South 13.8 mph 26.5 mph N/A   Clear
12:53 PM 74.5 °F 40.8 °F 30% 29.82 in 10.0 mi South 11.5 mph 27.6 mph N/A   Clear
1:13 PM 75.7 °F 40.3 °F 28% 29.82 in 10.0 mi South 13.8 mph 21.9 mph N/A   Clear
1:33 PM 76.1 °F 39.9 °F 27% 29.81 in 10.0 mi South 11.5 mph 28.8 mph N/A   Clear
1:52 PM 76.6 °F 39.9 °F 27% 29.81 in 10.0 mi South 17.3 mph 27.6 mph N/A   Clear
2:13 PM 76.5 °F 39.6 °F 27% 29.80 in 10.0 mi South 17.3 mph 29.9 mph N/A   Clear
2:33 PM 77.9 °F 39.9 °F 26% 29.80 in 10.0 mi South 19.6 mph 26.5 mph N/A   Clear
2:53 PM 78.1 °F 39.0 °F 25% 29.80 in 10.0 mi South 17.3 mph 28.8 mph N/A   Clear
3:13 PM 79.0 °F 38.7 °F 24% 29.80 in 10.0 mi South 17.3 mph 27.6 mph N/A   Clear
3:33 PM 79.3 °F 38.1 °F 23% 29.79 in 10.0 mi South 12.7 mph 28.8 mph N/A   Clear
3:52 PM 77.7 °F 37.4 °F 23% 29.79 in 10.0 mi South 15.0 mph 25.3 mph N/A   Clear
4:13 PM 78.1 °F 36.9 °F 23% 29.79 in 10.0 mi South 13.8 mph 25.3 mph N/A   Clear
4:33 PM 78.8 °F 37.2 °F 22% 29.79 in 10.0 mi South 18.4 mph 25.3 mph N/A   Clear
4:52 PM 77.2 °F 37.6 °F 24% 29.79 in 10.0 mi SSE 13.8 mph 23.0 mph N/A   Clear
5:13 PM 75.9 °F 36.7 °F 24% 29.79 in 10.0 mi SSE 12.7 mph 21.9 mph N/A   Clear
5:33 PM 75.2 °F 36.9 °F 25% 29.79 in 10.0 mi SSE 13.8 mph 25.3 mph N/A   Clear
5:53 PM 74.8 °F 36.7 °F 25% 29.79 in 10.0 mi SSE 12.7 mph 24.2 mph N/A   Clear
6:12 PM 73.9 °F 36.9 °F 26% 29.79 in 10.0 mi SSE 11.5 mph 19.6 mph N/A   Clear
6:33 PM 72.9 °F 37.4 °F 28% 29.80 in 10.0 mi SSE 10.4 mph 18.4 mph N/A   Clear
6:53 PM 71.6 °F 38.3 °F 30% 29.80 in 10.0 mi SSE 9.2 mph 19.6 mph N/A   Clear
7:13 PM 70.7 °F 39.2 °F 32% 29.80 in 10.0 mi SSE 10.4 mph 17.3 mph N/A   Clear
7:33 PM 70.3 °F 39.4 °F 32% 29.81 in 10.0 mi South 10.4 mph 17.3 mph N/A   Clear
7:53 PM 69.8 °F 40.1 °F 34% 29.82 in 10.0 mi South 10.4 mph 18.4 mph N/A   Clear
8:12 PM 69.4 °F 39.9 °F 34% 29.84 in 10.0 mi South 10.4 mph 16.1 mph N/A   Clear
8:33 PM 68.5 °F 40.3 °F 36% 29.85 in 10.0 mi South 9.2 mph - N/A   Clear
8:52 PM 67.1 °F 41.0 °F 39% 29.86 in 10.0 mi South 6.9 mph - N/A   Clear
9:13 PM 67.1 °F 41.4 °F 39% 29.87 in 10.0 mi South 10.4 mph - N/A   Clear
9:33 PM 66.2 °F 41.9 °F 41% 29.87 in 10.0 mi South 8.1 mph - N/A   Clear
9:53 PM 65.1 °F 42.6 °F 44% 29.88 in 10.0 mi South 5.8 mph - N/A   Clear
10:13 PM 63.9 °F 42.8 °F 46% 29.89 in 10.0 mi South 5.8 mph - N/A   Clear
10:33 PM 63.0 °F 43.3 °F 49% 29.89 in 10.0 mi South 6.9 mph - N/A   Clear
10:52 PM 62.8 °F 43.7 °F 50% 29.90 in 10.0 mi South 5.8 mph - N/A   Clear
11:13 PM 62.8 °F 44.1 °F 50% 29.90 in 10.0 mi South 5.8 mph - N/A   Clear
11:33 PM 62.2 °F 44.4 °F 52% 29.90 in 10.0 mi South 6.9 mph - N/A   Clear
11:53 PM 62.1 °F 44.6 °F 53% 29.91 in 10.0 mi South 6.9 mph - N/A   Clear